Location: Ariel
(45.9570°N, 122.5700°W)
Time: 12:30:11
(UTC-07:00)

Transit 4A - Visible Passes

Search period start: 29 October 2020 00:00
Search period end: 07 November 2020 23:00
Orbit: 862 x 982 km, 66.8° (Epoch: 29 October)

Date Brightness Start Highest point End Pass type
(mag) Time Alt. Az. Time Alt. Az. Time Alt. Az.
29 Oct 10.2 18:55:33 10° WNW 18:59:15 16° NNW 19:02:59 10° NNE visible
29 Oct 10.3 20:46:57 10° N 20:48:42 11° N 20:50:01 10° NNE visible
29 Oct 10.6 22:33:04 10° NNW 22:33:31 11° NNW 22:33:31 11° NNW visible
30 Oct 10.2 19:06:10 10° NW 19:09:11 13° NNW 19:12:12 10° N visible
30 Oct 10.2 20:56:26 10° N 20:58:43 12° N 20:58:59 12° NNE visible
30 Oct 10.7 22:42:16 10° NNW 22:42:29 11° NNW 22:42:29 11° NNW visible
31 Oct 10.2 19:16:51 10° NNW 19:19:10 12° NNW 19:21:30 10° N visible
31 Oct 10.2 21:05:44 10° N 21:07:59 13° N 21:07:59 13° N visible
31 Oct 10.8 22:51:29 10° NNW 22:51:29 10° NNW 22:51:29 10° NNW visible
01 Nov 10.2 18:27:24 10° NNW 18:29:11 11° N 18:30:57 10° N visible
01 Nov 10.2 20:14:57 10° NNW 20:16:58 14° N 20:16:58 14° N visible
02 Nov 10.2 18:37:38 10° NNW 18:39:13 11° N 18:40:49 10° NNE visible
02 Nov 10.1 20:24:09 10° NNW 20:25:59 15° N 20:25:59 15° N visible
03 Nov 10.1 18:47:21 10° N 18:49:16 11° N 18:51:09 10° NNE visible
03 Nov 10.2 20:33:20 10° NNW 20:35:01 16° N 20:35:01 16° N visible
04 Nov 10.0 18:56:45 10° N 18:59:16 12° NNE 19:00:32 12° NNE visible
04 Nov 10.2 20:42:33 10° NNW 20:44:03 16° N 20:44:03 16° N visible
05 Nov 10.1 17:17:37 10° NNW 17:19:44 12° N 17:21:50 10° N visible
05 Nov 9.9 19:06:01 10° NNW 19:09:15 14° NNE 19:09:36 14° NNE visible
05 Nov 10.2 20:51:46 10° NNW 20:53:06 16° NNW 20:53:06 16° NNW visible
06 Nov 10.1 17:28:06 10° NNW 17:29:45 11° N 17:31:25 10° NNE visible
06 Nov 9.8 19:15:14 10° NNW 19:18:40 16° NNE 19:18:40 16° NNE visible
06 Nov 10.3 21:01:00 10° NNW 21:02:10 16° NNW 21:02:10 16° NNW visible
07 Nov 10.1 17:38:09 10° NNW 17:39:48 11° N 17:41:26 10° NNE visible
07 Nov 9.7 19:24:26 10° NNW 19:27:46 19° NNE 19:27:46 19° NNE visible
07 Nov 10.4 21:10:17 10° NNW 21:11:17 15° NNW 21:11:17 15° NNW visible
